{"data":{"norad_id":62653,"intl_designator":"2025-009AW","name":"PAUSAT-1","alt_names":[],"object_type":"PAYLOAD","status":"ACTIVE","operator":null,"country":"TURK","launch_date":"2025-01-14","launch_site_code":"AFWTR","launch_vehicle":null,"mission":null,"orbit_class":"UNKNOWN","rcs_meters":null,"size_class":null,"mass_kg":null,"dimensions":null,"purposes":[],"wikipedia_slug":null,"has_3d_model":false,"image_url":null,"decayed_at":null,"tle_current":{"epoch":"2026-05-25T04:33:10.218240Z","epoch_age_seconds":55717,"freshness":"FRESH","line1":"1 62653U 25009AW  26145.18970160  .00003643  00000+0  15620-3 0  9990","line2":"2 62653  97.3955 225.1681 0002911  70.5371 289.6181 15.23370610 75288","mean_motion":15.2337061,"eccentricity":0.0002911,"inclination_deg":97.3955,"raan_deg":225.1681,"arg_perigee_deg":70.5371,"mean_anomaly_deg":289.6181,"bstar":0.0001562,"rev_number":7528,"period_min":94.52722735671,"perigee_km":493.68157013035,"apogee_km":497.68350786595,"semimajor_km":6873.8195389981,"source":"CELESTRAK","updated_at":"2026-05-25T13:38:03.158490Z"}}}